Meteo pe oră la Aliaga

Astăzi, 21 Ianuarie, Joi

Timp Temperatura Precipitaţii Vânt Presiune Umiditate
00:00 +1°C° 0 mm 6 m/s 651 mmHg 92%
01:00 +1°C° 0 mm 5 m/s 651 mmHg 92%
02:00 0°C° 0 mm 5 m/s 651 mmHg 91%
03:00 0°C° 0 mm 5 m/s 651 mmHg 91%
04:00 0°C° 0 mm 5 m/s 651 mmHg 91%
05:00 0°C° 0 mm 5 m/s 652 mmHg 91%
06:00 +1°C° 0 mm 5 m/s 652 mmHg 91%
07:00 +1°C° 0 mm 6 m/s 652 mmHg 90%
08:00 +1°C° 0 mm 6 m/s 652 mmHg 89%
09:00 0°C° 0 mm 7 m/s 653 mmHg 89%
10:00 +1°C° 0 mm 8 m/s 653 mmHg 88%
11:00 +2°C° 0 mm 9 m/s 653 mmHg 87%
12:00 +2°C° 0 mm 10 m/s 653 mmHg 85%
13:00 +2°C° 0 mm 10 m/s 653 mmHg 85%
14:00 +2°C° 0 mm 10 m/s 653 mmHg 84%
15:00 +2°C° 0 mm 10 m/s 652 mmHg 83%
16:00 +2°C° 0 mm 9 m/s 652 mmHg 85%
17:00 +2°C° 0 mm 9 m/s 652 mmHg 86%
18:00 +1°C° 0 mm 9 m/s 651 mmHg 88%
19:00 +1°C° 0 mm 9 m/s 651 mmHg 88%
20:00 +1°C° 0 mm 9 m/s 651 mmHg 88%
21:00 +2°C° 0 mm 8 m/s 651 mmHg 88%
22:00 +2°C° 0 mm 8 m/s 651 mmHg 88%
23:00 +2°C° 0 mm 8 m/s 651 mmHg 89%

Mâine, 22 Ianuarie, Vineri

Timp Temperatura Precipitaţii Vânt Presiune Umiditate
00:00 +2°C° 0 mm 8 m/s 650 mmHg 89%
01:00 +2°C° 0 mm 9 m/s 650 mmHg 87%
02:00 +2°C° 0 mm 11 m/s 649 mmHg 86%
03:00 +2°C° 0 mm 12 m/s 649 mmHg 85%
04:00 +1°C° 0 mm 13 m/s 648 mmHg 83%
05:00 +3°C° 0 mm 14 m/s 647 mmHg 82%
06:00 +2°C° 0 mm 15 m/s 647 mmHg 81%
07:00 +1°C° 0.8 mm 15 m/s 647 mmHg 78%
08:00 0°C° 0.8 mm 15 m/s 647 mmHg 75%
09:00 -1°C° 0.8 mm 15 m/s 647 mmHg 72%
10:00 -1°C° 0.1 mm 15 m/s 647 mmHg 76%
11:00 -1°C° 0.1 mm 14 m/s 647 mmHg 81%
12:00 -1°C° 0.1 mm 14 m/s 647 mmHg 85%
13:00 -1°C° 1.1 mm 13 m/s 647 mmHg 88%
14:00 -2°C° 1.1 mm 11 m/s 647 mmHg 91%
15:00 -3°C° 1.1 mm 10 m/s 647 mmHg 93%
16:00 -3°C° 0.1 mm 9 m/s 647 mmHg 91%
17:00 -3°C° 0.1 mm 9 m/s 648 mmHg 89%
18:00 -4°C° 0.1 mm 8 m/s 649 mmHg 86%
19:00 -4°C° 0 mm 8 m/s 649 mmHg 85%
20:00 -4°C° 0 mm 9 m/s 650 mmHg 85%
21:00 -4°C° 0 mm 9 m/s 650 mmHg 84%
22:00 -4°C° 0 mm 9 m/s 650 mmHg 84%
23:00 -4°C° 0 mm 10 m/s 651 mmHg 84%

Poimâine, 23 Ianuarie, Sâmbătă

Timp Temperatura Precipitaţii Vânt Presiune Umiditate
00:00 -4°C° 0 mm 10 m/s 651 mmHg 84%
01:00 -4°C° 0 mm 10 m/s 651 mmHg 83%
02:00 -4°C° 0 mm 10 m/s 651 mmHg 82%
03:00 -4°C° 0 mm 11 m/s 650 mmHg 81%
04:00 -4°C° 0 mm 11 m/s 650 mmHg 82%
05:00 -4°C° 0 mm 11 m/s 650 mmHg 82%
06:00 -4°C° 0 mm 11 m/s 650 mmHg 82%
07:00 -4°C° 0 mm 11 m/s 650 mmHg 81%
08:00 -3°C° 0 mm 11 m/s 650 mmHg 80%
09:00 -3°C° 0 mm 11 m/s 650 mmHg 79%
10:00 -2°C° 0 mm 12 m/s 651 mmHg 78%
11:00 -1°C° 0 mm 13 m/s 651 mmHg 78%
12:00 -1°C° 0 mm 14 m/s 651 mmHg 78%
13:00 -1°C° 0 mm 13 m/s 651 mmHg 78%
14:00 -1°C° 0 mm 12 m/s 650 mmHg 79%
15:00 0°C° 0 mm 12 m/s 650 mmHg 80%
16:00 0°C° 0.1 mm 12 m/s 649 mmHg 83%
17:00 0°C° 0.1 mm 12 m/s 649 mmHg 86%
18:00 -1°C° 0.1 mm 12 m/s 648 mmHg 89%
19:00 0°C° 0.3 mm 12 m/s 648 mmHg 89%
20:00 +2°C° 0.3 mm 12 m/s 647 mmHg 89%
21:00 +1°C° 0.3 mm 13 m/s 647 mmHg 89%
22:00 +2°C° 0.4 mm 12 m/s 647 mmHg 89%
23:00 +2°C° 0.4 mm 12 m/s 646 mmHg 89%

24 Ianuarie, Duminică

Timp Temperatura Precipitaţii Vânt Presiune Umiditate
00:00 +2°C° 0.4 mm 12 m/s 646 mmHg 89%
01:00 +1°C° 0.1 mm 13 m/s 646 mmHg 86%
02:00 0°C° 0.1 mm 14 m/s 645 mmHg 83%
03:00 -1°C° 0.1 mm 15 m/s 645 mmHg 79%
04:00 -1°C° 0.1 mm 14 m/s 646 mmHg 83%
05:00 -2°C° 0.1 mm 13 m/s 647 mmHg 87%
06:00 -2°C° 0.1 mm 12 m/s 647 mmHg 90%
07:00 -2°C° 0.1 mm 11 m/s 648 mmHg 90%
08:00 -2°C° 0.1 mm 10 m/s 649 mmHg 89%
09:00 -3°C° 0.1 mm 10 m/s 650 mmHg 89%
10:00 -2°C° 0 mm 10 m/s 650 mmHg 83%
11:00 -1°C° 0 mm 11 m/s 650 mmHg 78%
12:00 -1°C° 0 mm 12 m/s 651 mmHg 72%
13:00 +1°C° 0 mm 11 m/s 651 mmHg 70%
14:00 +1°C° 0 mm 11 m/s 651 mmHg 68%
15:00 +1°C° 0 mm 10 m/s 651 mmHg 66%
16:00 0°C° 0 mm 9 m/s 651 mmHg 71%
17:00 -1°C° 0 mm 7 m/s 651 mmHg 75%
18:00 -2°C° 0 mm 6 m/s 652 mmHg 80%
19:00 -2°C° 0 mm 6 m/s 652 mmHg 82%
20:00 -2°C° 0 mm 7 m/s 652 mmHg 84%
21:00 -3°C° 0 mm 7 m/s 652 mmHg 86%
22:00 -3°C° 0 mm 6 m/s 653 mmHg 87%
23:00 -3°C° 0 mm 6 m/s 653 mmHg 89%

25 Ianuarie, Luni

Timp Temperatura Precipitaţii Vânt Presiune Umiditate
00:00 -2°C° 0 mm 5 m/s 653 mmHg 91%
01:00 -2°C° 0 mm 5 m/s 653 mmHg 90%
02:00 -2°C° 0 mm 5 m/s 653 mmHg 90%
03:00 -2°C° 0 mm 5 m/s 653 mmHg 89%
04:00 -2°C° 0 mm 5 m/s 653 mmHg 89%
05:00 -2°C° 0 mm 5 m/s 654 mmHg 89%
06:00 -1°C° 0 mm 5 m/s 654 mmHg 90%
07:00 -1°C° 0 mm 5 m/s 654 mmHg 88%
08:00 -1°C° 0 mm 5 m/s 655 mmHg 87%
09:00 0°C° 0 mm 5 m/s 656 mmHg 85%
10:00 0°C° 0 mm 5 m/s 656 mmHg 81%
11:00 +1°C° 0 mm 6 m/s 656 mmHg 77%
12:00 +2°C° 0 mm 6 m/s 656 mmHg 74%
13:00 +2°C° 0 mm 6 m/s 656 mmHg 73%
14:00 +2°C° 0 mm 5 m/s 656 mmHg 73%
15:00 +2°C° 0 mm 5 m/s 656 mmHg 72%
16:00 +1°C° 0 mm 4 m/s 656 mmHg 76%
17:00 +1°C° 0 mm 3 m/s 656 mmHg 80%
18:00 +1°C° 0 mm 2 m/s 656 mmHg 85%
19:00 +1°C° 0 mm 2 m/s 656 mmHg 85%
20:00 -1°C° 0 mm 2 m/s 657 mmHg 86%
21:00 -1°C° 0 mm 2 m/s 657 mmHg 86%
22:00 -1°C° 0 mm 2 m/s 657 mmHg 85%
23:00 -1°C° 0 mm 2 m/s 657 mmHg 84%

26 Ianuarie, Marţi

Timp Temperatura Precipitaţii Vânt Presiune Umiditate
00:00 -1°C° 0 mm 2 m/s 657 mmHg 83%
01:00 -1°C° 0 mm 2 m/s 657 mmHg 84%
02:00 +1°C° 0 mm 2 m/s 657 mmHg 85%
03:00 0°C° 0 mm 3 m/s 657 mmHg 86%
04:00 0°C° 0 mm 3 m/s 657 mmHg 88%
05:00 0°C° 0 mm 3 m/s 657 mmHg 89%
06:00 +1°C° 0 mm 2 m/s 658 mmHg 90%
07:00 +1°C° 0 mm 3 m/s 658 mmHg 88%
08:00 +2°C° 0 mm 3 m/s 659 mmHg 86%
09:00 +3°C° 0 mm 3 m/s 659 mmHg 85%
10:00 +4°C° 0 mm 4 m/s 659 mmHg 83%
11:00 +6°C° 0 mm 4 m/s 660 mmHg 81%
12:00 +7°C° 0 mm 5 m/s 660 mmHg 79%
13:00 +6°C° 0 mm 5 m/s 660 mmHg 82%
14:00 +6°C° 0 mm 5 m/s 659 mmHg 85%
15:00 +6°C° 0 mm 5 m/s 659 mmHg 88%
16:00 +5°C° 0.1 mm 5 m/s 659 mmHg 90%
17:00 +5°C° 0.1 mm 5 m/s 659 mmHg 91%
18:00 +4°C° 0.1 mm 6 m/s 659 mmHg 92%
19:00 +5°C° 0 mm 5 m/s 659 mmHg 93%
20:00 +5°C° 0 mm 5 m/s 660 mmHg 93%
21:00 +5°C° 0 mm 5 m/s 660 mmHg 94%
22:00 +5°C° 0 mm 4 m/s 660 mmHg 94%
23:00 +5°C° 0 mm 4 m/s 660 mmHg 94%
Arată mai mult

Formular de consimțământ

Meteoprog și furnizorii noștri de servicii pot stoca și accesa date personale, precum cookies, identificatori de dispozitiv sau alte tehnologii similare pe dispozitivul dumneavoastră și procesa astfel de date pentru a personaliza conținutul și reclamele, dar și pentru a oferi caracteristici de social media și pentru a analiza traficul.

  • Stocarea și/sau accesarea informațiilor pe dispozitivul dumneavoastră

    Cookies, identificatori de dispozitiv sau alte informații pot fi stocate sau accesate pe dispozitiv în scopurile indicate mai sus.

  • Reclame și conținut personalizat, evaluarea reclamelor și a conținutului, informații despre audiențe și dezvoltarea produselor

    Reclamele și conținutul pot fi personalizate pe baza unui profil. Pot fi adăugate date suplimentare pentru a personaliza mai bine reclamele și conținutul. Performanța reclamelor și conținutului poate fi măsurată. Pot fi obținute informații despre utilizatorii care au văzut reclamele și conținutul. Aceste date pot fi utilizate pentru a dezvolta sau îmbunătăți experiența utilizatorilor, sistemele și software-ul.

Dând clic pe ‘Sunt de acord’, permiteți utilizarea cookie-urilor menționate, a identificatorilor de dispozitiv, balizelor web sau altor tehnologii similare. Setările pot fi modificate din browser-ul dispozitivului dumneavoastră.

În anumite scopuri, interesele legitime pot prima asupra consimțământului. Puteți citi mai multe informații în acest sens în Politica privind Confidențialitatea Datelor și Cookie.